Погода в Андромере

Россия / Псковская область     58°21′36″N   29°33′32″E
темп.,
°C
ветер,
м/с
пор.,
м/с
влажн.,
%
обл.,
%
осадки,
мм/ч
давл.,
гПа
погр.,
м
25 января, пн
пн2500:00+2вюв3898100 0.4 999269
03:00+3юв41198100 1.7 998408
06:00+3ююв41297100 0.4 997517
09:00+3ю41296100 0.5 999542
12:00+3ю41098100 0.0 1001467
15:00+2ю41194100 0.1 1002572
18:00+1ююв3994100 0.0 1003362
21:000ююв2697100 0.0 1004195
26 января, вт
вт2600:00+1вюв3798100 0.1 1004243
03:00+2вюв3998100 0.2 1003359
06:00+1в31096100 0.0 1001360
09:00+2в41097100 1.6 999404
12:00+2в41196100 1.8 999451
15:00+3вюв51294100 2.1 997653
18:00+2вюв41097100 0.6 996530
21:00+1вюв4998100 1.3 996512
27 января, ср
ср2700:000вюв3799100 1.5 996306
03:00−1юв2796100 2.4 996449
06:00−2в259885 0.1 995217
09:00−3вюв119888 0.2 99621
12:00−1ююз119289 0.0 998184
15:000ююз139085 0.0 999325
18:00−2ю129645 0.0 100122
21:00−2юв129861 0.0 100273
28 января, чт
чт2800:00−1юв129798 0.1 1004123
03:00−1вюв139899 0.4 1004120
06:000юз2698100 0.7 1005338
09:00−2юз2497100 1.1 1005233
12:00−1юз2393100 0.4 1005332
15:00−1ююз2393100 0.8 1004307
18:00−2ююз1294100 0.2 100381
21:00−3юз1293100 0.2 100360
29 января, пт
пт2900:00−4юз229474 0.0 100255
03:00−5ююз259767 0.0 1001191
06:00−5ююз269737 0.0 1001242
09:00−4ююз368864 0.1 1000503
12:00−3ююз3683100 0.1 1000768
15:00−2ю3785100 0.2 999700
18:00−4ююв2785100 0.1 998441
21:00−4ююв4989100 0.1 996562